Miscellaneous Local Product
Issued by NWS Hastings, NE

Home | Current Version | Previous Version | Graphics & Text | Print | Product List | Glossary On
Versions: 1 2 3 4 5 6 7 8 9 10 11 12 13 14 15 16 17 18 19 20 21 22 23 24 25 26 27 28 29 30 31 32 33 34 35 36 37 38 39 40 41 42 43 44 45 46 47 48 49 50
000
AXUS43 KGID 280102
MISGRI

GID CWA HOURLY WEATHER ROUNDUP
NATIONAL WEATHER SERVICE HASTINGS NE
800 PM CDT SUN JUL 27 2014

NOTE: "FAIR" INDICATES FEW OR NO CLOUDS BELOW 12,000 FEET WITH NO
SIGNIFICANT WEATHER AND/OR OBSTRUCTIONS TO VISIBILITY.

...SOUTH CENTRAL NEBRASKA...

CITY           SKY/WX    TMP DP  RH WIND       PRES   REMARKS
GRAND ISLAND   CLEAR     79  58  48 N8        30.17S
HASTINGS       CLEAR     80  55  42 N5        30.17S
KEARNEY        CLEAR     81  50  34 N9        30.19R
ORD            CLEAR     78  55  44 N8        30.17R
YORK           CLEAR     77  63  61 N7        30.15S
AURORA         CLEAR     78  61  55 NE6       30.16R
LEXINGTON      CLEAR     79  54  41 N8        30.20R
HOLDREGE       CLEAR     79  58  48 CALM      30.19S
HEBRON         CLEAR     80  56  43 NE6       30.15R

...NEBRASKA PANHANDLE...

CITY           SKY/WX    TMP DP  RH WIND       PRES   REMARKS
CHADRON        SUNNY     81  49  32 NE15      30.24R
ALLIANCE       SUNNY     82  45  27 E12       30.27R
SCOTTSBLUFF    SUNNY     84  54  35 MISG      30.26S
SIDNEY         SUNNY     84  42  22 SE9       30.30S

...WESTERN AND NORTH CENTRAL NEBRASKA...

CITY           SKY/WX    TMP DP  RH WIND       PRES   REMARKS
VALENTINE      SUNNY     79  51  37 N13       30.23R
AINSWORTH      SUNNY     76  52  44 N10       30.23R
ONEILL         CLEAR     77  49  37 N12G17    30.19S
BROKEN BOW     CLEAR     79  52  38 N10       30.20S
IMPERIAL       LGT RAIN  85  48  27 NE5       30.25S
NORTH PLATTE   SUNNY     81  47  30 N8        30.21S
MCCOOK         CLOUDY    84  52  33 E9        30.21R

...EASTERN NEBRASKA...

CITY           SKY/WX    TMP DP  RH WIND       PRES   REMARKS
NORFOLK        CLEAR     75  57  53 N16       30.15S
SO SIOUX CITY  PTCLDY    74  57  55 N15       30.12S
ALBION         CLEAR     76  56  50 N6        30.17S
OMAHA EPPLEY   PTCLDY    77  56  48 N14       30.11R
OFFUTT AFB     CLEAR     76  57  52 N8        30.11R
MILLARD        CLEAR     77  57  50 N5        30.12R
LINCOLN        CLEAR     79  55  43 N15       30.14R
NEBRASKA CITY  CLEAR     75  55  49 N9        30.12R
BEATRICE       CLEAR     78  60  54 N9        30.13R
FALLS CITY     NOT AVBL

...NORTHERN KANSAS...

CITY           SKY/WX    TMP DP  RH WIND       PRES   REMARKS
GOODLAND       SUNNY     84  47  27 SE10      30.26S
HILL CITY      CLEAR     86  51  29 NE9       30.18R
NORTON         CLEAR     82  43  24 NE9       30.19R
PHILLIPSBURG   CLEAR     88  46  23 N9        30.16S
SMITH CENTER   CLEAR     84  48  28 N9        30.16S
HAYS           CLEAR     84  48  28 NE9       30.17R
RUSSELL        CLEAR     85  50  29 N9        30.14S
CONCORDIA      CLEAR     82  56  40 N8        30.14R
SALINA         CLEAR     87  53  31 NE10      30.12R
TOPEKA         CLEAR     84  57  39 NW7       30.08S



USA.gov is the U.S. government's official web portal to all federal, state and local government web resources and services.